THEMIS E

Last updated on Fri Dec 19 2025 00:02:42 GMT+0000 (Coordinated Universal Time)

1 30798U 07004E 25352.46563802 -.00000448 00000+0 00000+0 0 9994 2 30798 2.7568 104.4611 8392721 188.1314 78.8019 0.87837900 64322
UTC large
Height (km)
Speed (km/s)
/
Latitude / Longitude
Inclination (degrees)
Orbital Period (minutes)
Azimuth
Elevation
Range (km)
Doppler Factor

Next 0 passes for location: London (51.5072 / 0.1276)

Sorry there are no passes over London.